Theta_e
302 302 302 301 300 303 303 300 298 302 304 305 303 306 304 304 304 304 305 307 309 309 307 308 303 307 306 306 307 308 307 306 309 308 307 310 308 311 312 310 314 313 309 308
300 302 302 300 301 303 302 298 300 302 302 305 305 302 303 303 303 303 304 305 306 305 305 303 305 305 305 306 306 307 307 307 308 307 309 308 312 312 311 311 308 307 309 307
299 301 302 301 302 303 302 298 302 301 302 299 301 303 303 304 303 303 302 303 304 306 306 305 304 306 307 305 306 309 307 307 308 309 305 309 310 311 309 311 310 305 308 306
298 300 301 301 300 302 301 295 297 300 303 303 300 301 302 303 302 302 302 303 303 304 304 305 305 304 305 306 305 308 307 306 308 308 308 309 309 307 307 307 308 310 307 307
298 299 300 300 300 301 301 297 297 297 297 302 302 301 300 301 302 301 302 303 303 302 301 301 304 304 304 305 305 303 302 300 300 300 305 305 305 302 303 304 305 306 306 307
299 299 299 299 300 300 302 299 297 297 299 300 303 302 300 301 301 301 301 301 301 302 301 301 301 301 302 303 305 304 304 303 302 306 304 304 305 299 303 304 306 307 308 307
299 299 298 298 299 300 300 300 297 295 296 300 300 300 300 299 300 300 301 300 301 301 299 300 300 300 300 301 302 303 303 303 304 307 305 305 300 304 305 306 308 306 303 300
297 298 298 298 297 298 299 299 300 299 296 298 299 299 299 299 299 300 299 299 300 298 300 303 304 304 304 302 301 301 302 302 305 308 307 304 303 303 308 308 308 306 303 296
295 296 297 298 298 298 298 297 299 299 298 298 298 299 298 297 297 298 298 298 298 298 299 301 306 306 305 304 302 301 301 301 303 304 308 307 304 304 303 304 307 301 298 295
294 294 293 295 296 297 298 298 297 298 300 297 297 297 298 297 297 298 299 301 300 299 301 303 305 306 303 303 303 302 303 303 304 304 307 307 304 303 302 307 303 299 296 294
294 294 294 294 294 296 298 297 297 297 297 298 297 297 297 298 297 299 299 299 299 300 304 301 302 303 302 301 301 302 303 306 306 307 308 307 302 301 305 301 295 296 295 293
294 294 294 293 294 295 297 297 297 297 296 298 298 298 299 298 299 296 297 299 300 300 302 299 299 302 299 300 299 301 302 303 305 305 304 300 301 300 298 296 296 294 294 292
294 293 294 294 293 293 296 296 296 296 297 298 298 298 298 299 300 299 298 297 299 299 300 301 302 303 297 300 299 299 305 304 304 305 302 300 301 298 297 295 294 292 292 291
293 292 294 293 293 293 296 294 296 296 297 297 296 298 298 298 298 299 300 301 300 300 300 303 302 303 301 298 300 301 301 305 304 303 301 298 299 299 295 293 291 291 291 291
292 293 293 293 293 296 296 295 296 296 296 296 294 296 299 298 299 298 300 299 298 299 302 302 302 299 302 301 302 303 303 304 304 304 301 300 297 297 293 292 291 290 290 290
292 293 293 292 294 294 296 293 294 296 295 295 292 297 298 299 298 298 298 297 296 298 302 302 301 299 302 304 302 302 302 301 301 301 296 293 294 293 293 291 291 290 289 289
292 293 292 292 294 294 294 295 295 295 295 297 292 295 297 299 299 298 297 298 299 299 301 301 301 300 303 304 304 303 301 300 296 294 295 296 295 296 293 291 290 289 288 288
293 293 292 292 293 294 294 294 295 295 295 295 295 294 299 301 301 302 300 301 302 302 301 300 301 301 303 305 301 301 297 295 295 294 294 294 293 294 293 291 290 289 287 286
293 292 293 293 294 293 294 294 295 294 294 293 295 300 298 301 300 300 300 301 302 301 301 300 301 301 301 301 301 299 296 296 295 293 292 293 293 293 292 291 290 287 287 285
293 293 293 293 292 293 293 293 293 294 296 298 297 295 299 300 300 301 300 299 302 302 298 296 299 301 300 300 299 297 295 295 293 294 294 293 293 292 291 289 287 286 285 283
294 292 293 294 293 293 293 294 294 295 297 295 296 296 299 298 301 300 299 301 300 303 299 300 298 299 300 299 297 295 295 294 293 293 292 292 292 292 290 287 285 285 283 282
293 294 295 294 293 294 294 294 295 298 297 295 296 296 296 298 299 300 299 300 298 299 293 294 297 298 297 296 295 294 294 293 292 292 291 291 291 290 288 285 284 283 283 281
295 294 296 292 292 295 291 294 297 300 298 296 296 296 296 296 296 298 299 299 296 293 294 298 299 295 295 294 294 293 291 292 291 289 290 289 287 287 285 283 283 283 281 280
292 292 294 292 295 295 295 296 295 293 292 296 297 295 299 294 295 293 299 296 298 298 297 301 295 294 293 293 292 292 290 288 287 286 287 285 284 283 285 285 283 282 279 279
294 294 292 294 291 292 294 290 290 292 297 298 296 296 296 296 298 297 297 300 301 299 300 292 290 292 292 292 291 289 287 285 283 284 282 281 282 281 280 281 281 281 279 278
294 294 297 297 299 299 296 289 296 298 298 294 296 298 298 298 298 297 296 299 298 296 293 295 288 287 287 288 287 285 284 284 282 283 282 281 280 279 278 278 279 279 279 278
295 297 296 297 299 299 292 295 298 294 298 295 298 298 299 297 298 298 296 295 292 294 293 290 286 287 286 283 282 283 283 281 280 280 280 279 279 279 277 276 276 278 278 278
Wind_Speed
26 24 23 21 20 19 18 5 2 4 13 2 2 5 5 1 2 1 2 2 1 4 4 2 2 5 3 0 2 2 2 3 3 7 6 5 5 2 3 3 1 3 2 5
26 25 25 25 23 25 13 3 1 0 0 7 5 1 1 1 2 1 1 3 3 2 6 1 5 3 4 3 2 1 1 2 4 5 2 4 4 2 4 2 2 4 2 5
27 27 27 26 25 29 14 3 3 1 0 2 6 5 3 5 2 3 1 0 1 2 3 2 2 2 2 2 4 3 1 4 6 7 7 4 4 3 4 4 3 4 10 17
27 28 29 28 29 30 14 2 4 3 6 9 4 6 7 7 5 3 4 3 5 5 2 2 5 4 3 2 3 3 3 5 4 6 7 7 13 8 9 14 14 12 16 17
26 29 30 29 29 30 10 4 3 1 1 11 10 8 6 6 5 4 4 4 4 5 6 8 2 1 2 5 1 4 2 3 3 4 7 10 15 13 15 21 18 15 17 23
28 27 28 27 31 30 6 5 2 3 4 6 10 12 5 7 7 5 5 3 3 3 7 6 8 7 6 6 4 4 2 3 2 12 5 8 11 9 15 6 6 5 8 8
31 29 31 28 30 33 8 4 5 3 2 5 11 6 13 7 8 6 0 4 5 4 6 4 2 4 6 7 8 7 6 4 2 7 3 7 8 4 6 6 8 7 1 3
26 27 30 31 28 30 25 12 2 2 3 5 4 6 7 9 7 6 5 5 5 1 5 4 4 2 3 6 9 11 7 4 2 4 6 11 11 9 5 4 7 5 7 7
25 25 28 33 30 26 26 22 16 1 3 7 7 8 6 4 4 2 5 5 7 4 2 2 3 4 3 2 4 3 6 4 4 3 6 6 6 3 0 3 6 2 6 10
27 27 28 30 29 30 24 11 23 5 2 3 7 5 8 5 3 2 3 2 3 3 3 4 4 3 3 3 3 4 3 2 8 9 9 6 5 4 2 2 6 1 6 10
29 29 30 29 30 32 27 20 19 17 2 3 1 5 5 4 4 4 3 3 2 2 4 3 4 3 4 2 4 4 6 5 4 3 5 8 2 2 6 2 1 2 3 6
32 30 29 31 30 31 30 6 22 19 2 1 4 8 8 5 11 5 1 2 2 2 2 1 1 2 1 5 3 5 4 7 4 6 5 3 3 4 4 2 1 2 4 7
32 31 30 31 30 32 35 14 24 14 2 2 4 7 22 16 10 7 4 1 3 3 3 2 2 4 3 3 5 3 2 2 3 2 4 6 6 3 3 3 3 2 4 10
33 31 31 31 30 31 37 12 25 19 4 2 4 7 14 27 22 13 13 5 2 4 2 2 3 3 4 3 4 4 4 4 5 5 4 3 7 7 6 4 7 8 7 7
33 32 30 28 28 31 24 21 27 26 9 2 2 7 12 17 19 26 20 13 5 3 1 4 4 2 2 2 1 4 5 6 5 7 4 3 3 10 10 8 6 7 10 10
32 29 27 26 28 26 19 3 23 26 14 2 2 1 3 5 20 21 17 15 4 3 4 3 3 5 3 3 4 4 11 7 4 4 4 3 5 9 8 7 8 9 8 13
32 30 29 28 29 28 4 2 9 33 17 1 2 3 3 9 8 5 2 8 3 4 3 4 3 3 6 3 8 3 7 6 3 8 10 5 6 5 10 11 14 14 15 14
32 31 29 29 29 22 8 5 18 34 10 3 2 3 1 6 2 3 2 4 4 4 4 2 4 2 3 5 7 6 4 6 6 5 1 4 8 12 11 17 18 11 10 13
33 31 28 24 15 5 13 12 21 15 4 5 4 3 3 5 2 2 1 1 4 3 5 4 5 3 6 7 8 7 9 8 10 5 7 10 11 12 12 13 13 12 12 11
38 30 6 3 13 20 21 5 2 2 4 3 4 3 4 3 3 3 3 3 3 3 4 3 4 5 6 7 7 7 11 9 13 12 8 9 10 13 12 12 10 11 12 13
21 4 3 12 34 8 2 3 4 3 5 5 4 6 4 2 3 3 3 2 3 2 3 4 3 4 6 10 8 8 12 13 12 4 7 10 15 13 12 11 13 16 17 15
16 16 21 24 4 3 5 4 4 7 7 5 8 5 4 3 2 1 2 2 1 4 2 2 3 4 3 5 8 10 10 10 8 9 10 13 15 17 15 15 14 17 19 22
38 8 5 5 4 5 9 8 4 5 5 6 9 6 4 2 2 0 1 4 4 1 1 4 4 2 2 5 8 8 7 12 10 7 12 17 14 16 17 15 19 21 21 23
4 5 6 5 5 5 4 6 6 4 4 9 12 5 3 2 2 2 2 3 2 1 3 5 3 3 5 6 6 10 8 8 8 8 14 15 18 16 19 22 24 24 24 24
4 4 5 5 4 2 1 3 2 3 8 11 6 4 3 1 2 2 2 2 4 4 4 3 2 1 6 8 7 8 8 7 7 12 12 15 19 18 16 18 22 22 24 25
4 3 4 2 5 3 3 3 4 8 9 4 3 4 3 3 3 3 6 4 6 3 2 2 0 2 3 6 6 6 8 11 11 15 17 18 18 17 17 17 17 19 24 25
2 2 1 1 3 3 2 4 6 4 7 3 3 5 6 3 2 3 4 4 2 1 0 1 1 4 7 6 6 9 13 13 14 16 16 15 16 19 19 14 14 17 19 22
Wind_Direction
203 202 197 196 192 183 162 120 135 177 147 137 192 197 164 327 310 313 276 38 120 156 151 178 229 222 231 53 102 329 194 171 248 241 259 292 208 129 85 142 327 300 278 269
203 202 198 193 188 181 155 94 111 99 49 190 208 113 150 158 254 256 187 233 197 111 179 162 214 214 273 3 77 224 192 288 324 312 3 353 74 111 117 110 154 208 233 267
203 199 197 193 189 184 164 119 129 89 293 133 150 152 195 194 229 271 24 349 67 133 199 263 237 236 316 130 170 239 155 201 213 249 231 221 245 217 269 188 219 248 249 277
204 202 195 197 195 193 185 112 218 176 183 211 141 167 177 181 202 211 169 245 212 166 174 248 234 225 292 248 234 188 183 216 224 257 270 275 269 254 254 254 245 248 277 266
205 200 199 201 198 196 202 143 150 102 350 161 184 186 195 174 204 175 224 217 216 197 189 204 141 146 140 247 331 192 150 262 144 255 256 257 271 263 253 260 262 257 257 268
202 202 201 200 199 192 169 152 115 110 161 163 182 208 152 191 148 243 225 211 198 261 241 229 238 232 227 237 209 206 163 208 114 275 248 303 289 235 238 237 218 205 236 250
204 205 203 206 204 205 197 135 139 112 187 178 204 190 197 191 210 217 111 165 137 236 340 274 249 248 253 235 228 202 188 181 177 284 334 268 247 266 231 227 258 224 205 184
204 206 203 208 214 211 210 216 141 128 158 168 161 179 195 211 231 242 251 255 202 75 4 347 306 305 279 235 217 215 197 149 215 248 251 277 301 278 194 191 285 211 183 127
210 206 206 208 212 218 213 223 219 15 139 210 141 183 167 172 181 298 233 266 207 137 136 124 244 234 229 261 300 202 170 205 198 230 257 261 223 237 329 138 289 105 135 151
207 208 214 215 218 222 212 217 216 206 208 245 150 167 181 158 147 187 266 192 93 117 144 199 218 244 207 233 206 185 141 170 217 242 255 256 248 154 190 109 252 147 150 157
208 211 217 218 216 216 213 215 218 194 165 292 231 170 139 135 146 160 201 67 359 106 190 182 197 208 230 255 219 196 191 183 210 217 243 271 47 66 177 258 33 341 119 150
210 211 216 222 222 219 212 199 196 190 153 260 262 331 321 271 180 143 188 174 125 167 166 231 135 204 254 204 253 236 235 182 192 196 227 182 184 202 311 318 236 179 133 145
213 212 214 217 221 220 209 195 165 167 179 211 184 240 263 271 262 230 139 296 192 163 154 168 220 242 157 201 242 205 263 155 194 14 232 228 201 177 163 181 152 138 136 144
213 213 214 217 221 221 208 182 176 163 113 227 257 212 229 234 246 261 230 185 171 128 150 231 225 215 188 247 244 216 203 148 176 256 279 326 236 193 143 120 107 104 106 138
211 211 212 214 212 207 211 194 185 177 164 190 281 317 231 208 219 230 212 189 150 152 185 223 230 246 264 237 275 239 183 184 173 245 200 241 265 155 144 136 133 127 138 130
204 202 204 203 199 204 179 148 194 183 185 62 310 191 257 254 225 211 214 213 205 175 189 228 223 227 178 242 236 245 209 196 209 216 118 149 135 135 139 130 149 155 143 142
198 195 200 198 198 192 149 133 166 177 169 121 289 267 222 211 186 184 154 185 188 182 195 218 232 235 197 230 249 231 218 189 150 135 116 124 167 162 147 139 138 137 131 130
190 187 190 191 189 195 192 356 160 161 133 166 243 263 231 177 161 181 184 159 167 192 201 203 211 180 206 249 230 215 144 119 134 165 21 149 125 132 136 140 129 132 131 131
183 181 177 173 182 169 168 142 139 162 188 176 207 211 211 160 159 128 114 154 195 167 205 209 163 183 223 221 212 193 182 172 166 127 116 128 140 145 149 138 141 145 154 146
176 165 147 162 147 123 131 98 91 245 193 245 195 148 182 175 162 173 161 190 206 199 229 130 199 243 228 217 206 185 168 163 143 129 144 153 156 169 153 155 154 154 155 151
164 135 143 131 133 103 74 163 180 214 184 197 178 171 161 196 170 169 207 182 163 212 251 169 239 262 229 201 183 159 162 159 167 120 155 172 167 160 150 153 153 152 154 161
149 127 128 129 129 137 163 206 178 223 213 193 159 155 178 149 158 192 161 148 147 236 139 101 263 249 256 158 139 146 144 144 137 145 146 145 150 153 150 153 154 158 164 166
127 118 154 134 204 164 176 191 192 218 171 179 161 158 135 103 85 209 149 170 220 74 93 227 232 247 146 128 126 116 112 119 118 112 123 125 124 137 144 142 163 166 165 169
128 147 131 163 198 209 185 189 183 210 156 162 156 130 121 154 92 143 171 237 127 253 235 236 248 214 152 122 122 123 137 130 126 125 129 133 139 143 164 171 169 168 165 169
125 135 177 190 220 228 137 146 128 168 150 144 123 67 94 103 114 210 119 193 231 225 234 238 283 188 137 128 123 124 127 127 128 134 133 143 151 149 149 166 169 171 166 167
127 149 159 166 153 149 178 200 149 140 143 112 83 119 124 177 150 155 213 180 220 243 244 320 34 85 90 117 115 111 120 129 130 141 148 151 153 149 149 152 163 168 170 169
60 77 31 244 80 129 132 155 137 138 137 136 125 132 186 120 184 222 184 206 216 292 17 69 109 131 127 111 103 116 119 117 121 128 139 136 142 144 139 131 153 164 174 174